Weather History for Manchester, NH

Change the Weather History Date:

Monday, December 24, 2012

  Actual Average Record
Temperature  
Mean Temperature 32 °F -  
Max Temperature 37 °F 35 °F 66 °F (1990)
Min Temperature 27 °F 15 °F -14 °F (1989)
Degree Days  
Heating Degree Days 33    
Moisture  
Dew Point 16 °F    
Average Humidity 54    
Maximum Humidity 72    
Minimum Humidity 34    
Precipitation  
Precipitation 0.00 in - - ()
Sea Level Pressure  
Sea Level Pressure 30.03 in    
Wind  
Wind Speed 5 mph (West)    
Max Wind Speed 10 mph    
Max Gust Speed -    
Visibility 10 miles    
Events      
Averages and records for this station are not official NWS values.
T = Trace of Precipitation, MM = Missing Value Source: NWS Daily Summary

Daily Weather History Graph

Daily Weather History Graph

Search for Another Location

Airport:

Trip Planner

Search our weather history database for the weather conditions in past years. The results will help you decide how hot, cold, wet, or windy it might be!

Date:

Astronomy

Dec. 24, 2012 Rise Set
Actual Time 7:15 AM EST 4:16 PM EST
Civil Twilight 6:42 AM EST 4:48 PM EST
Nautical Twilight 6:06 AM EST 5:24 PM EST
Astronomical Twilight 5:32 AM EST 5:58 PM EST
Moon 1:43 PM EST (12/24) 3:48 AM EST (12/24)
Length of Visible Light 10h 05m
Length of Day
9h 01m
Waxing Gibbous, 88% of the Moon is Illuminated
Dec 24
Waxing Gibbous
Dec 28
Full
Jan 4
Last Quarter
Jan 11
New
Jan 18
First Quarter

Hourly Weather History & Observations

Time (EST) Temp. Windchill Dew Point Humidity Pressure Visibility Wind Dir Wind Speed Gust Speed Precip Events Conditions
12:53 AM 30.9 °F 24.3 °F 19.9 °F 64% 29.87 in 10.0 mi South 6.9 mph - N/A   Overcast
1:53 AM 32.0 °F 24.2 °F 19.9 °F 61% 29.90 in 10.0 mi South 9.2 mph - N/A   Overcast
2:53 AM 30.9 °F 25.2 °F 19.9 °F 64% 29.91 in 10.0 mi South 5.8 mph - N/A   Overcast
3:53 AM 30.9 °F 24.3 °F 19.9 °F 64% 29.91 in 10.0 mi SSW 6.9 mph - N/A   Scattered Clouds
4:53 AM 30.9 °F 26.2 °F 19.9 °F 64% 29.94 in 10.0 mi SSW 4.6 mph - N/A   Clear
5:53 AM 32.0 °F - 19.0 °F 59% 29.97 in 10.0 mi Calm Calm - N/A   Clear
6:53 AM 32.0 °F 27.5 °F 17.1 °F 54% 30.01 in 10.0 mi West 4.6 mph - N/A   Clear
7:53 AM 28.9 °F - 17.1 °F 61% 30.05 in 10.0 mi Calm Calm - N/A   Clear
8:53 AM 32.0 °F 25.6 °F 16.0 °F 52% 30.08 in 10.0 mi WNW 6.9 mph - N/A   Clear
9:53 AM 33.1 °F 26.1 °F 14.0 °F 46% 30.08 in 10.0 mi West 8.1 mph - N/A   Clear
10:53 AM 35.1 °F 27.4 °F 12.9 °F 40% 30.08 in 10.0 mi West 10.4 mph - N/A   Clear
11:53 AM 36.0 °F 29.0 °F 12.9 °F 39% 30.06 in 10.0 mi WNW 9.2 mph - N/A   Clear
12:53 PM 36.0 °F 29.6 °F 12.0 °F 37% 30.04 in 10.0 mi West 8.1 mph - N/A   Clear
1:53 PM 37.0 °F 30.4 °F 12.0 °F 36% 30.06 in 10.0 mi West 9.2 mph - N/A   Clear
2:53 PM 37.0 °F 31.6 °F 10.9 °F 34% 30.08 in 10.0 mi WNW 6.9 mph - N/A   Clear
3:53 PM 35.1 °F 32.2 °F 12.0 °F 39% 30.08 in 10.0 mi NNW 3.5 mph - N/A   Clear
4:53 PM 33.1 °F - 14.0 °F 46% 30.07 in 10.0 mi Calm Calm - N/A   Clear
5:53 PM 30.0 °F - 14.0 °F 51% 30.08 in 10.0 mi Calm Calm - N/A   Clear
6:53 PM 28.0 °F - 17.1 °F 63% 30.08 in 10.0 mi Calm Calm - N/A   Clear
7:53 PM 28.0 °F 24.2 °F 17.1 °F 63% 30.07 in 10.0 mi NNW 3.5 mph - N/A   Clear
8:53 PM 28.0 °F - 17.1 °F 63% 30.09 in 10.0 mi Calm Calm - N/A   Clear
9:53 PM 28.0 °F - 17.1 °F 63% 30.08 in 10.0 mi Calm Calm - N/A   Clear
10:53 PM 27.0 °F 23.0 °F 18.0 °F 69% 30.07 in 10.0 mi NNE 3.5 mph - N/A   Clear
11:53 PM 27.0 °F - 19.0 °F 72% 30.06 in 10.0 mi Calm Calm - N/A   Clear